COSMOS 1867 COOLANT

Satellite information

Favourite Embed

Satellite Type and Status

DEBRISIN ORBIT

Key statistics

Satellite COSMOS 1867 COOLANT at a glance.

Uptime

13984

Days in orbit

Revolutions

≈ 14.3

Per day

Orbit

LEO

Low Earth Orbit

Inclination

65.0

Latest

Satellite identification and parameters

Extended collection of information and parameters for COSMOS 1867 COOLANT.

Object identification

Identified? True

Debris? False

Object name: COSMOS 1867 COOLANT

International designator: 1987-060AW

Object number (NORAD): 50794

Object ID (CCSDS): 50794

Country: COMMONWEALTH OF INDEPENDENT STATES (CIS)

Current information (Y/N): Y

RCS size: SMALL

Orbital parameters

Period: 100.369 minutes

Inclination: 65.0086 deg

SMA: 7154.188 km

Apoapsis: 785.985 km

Periapsis: 766.122 km

RAAN: 327.0053 deg

Eccentricy: 0.00138822

Argument of periapsis: 263.7279 deg

Mean anomaly: 96.2226 deg

Mean motion: 14.34703704 rev/day

Mean motion (dot): 0.00000868 rev/day2

B* drag term: 0.00034107846 1/REarth

Two-line elements (TLE)

Creation date: Oct. 19, 2025, 2:20 a.m.

Reference frame: TEME

Reference center: EARTH

Epoch: Oct. 18, 2025, 8:02 p.m. UTC

TLE line 0: 0 COSMOS 1867 COOLANT

TLE line 1: 1 50794U 87060AW 25291.83491680 .00000868 00000-0 34108-3 0 9995

TLE line 2: 2 50794 65.0086 327.0053 0013882 263.7279 96.2226 14.34703704374240

Live tracking on map

Real-time ground track for satellite COSMOS 1867 COOLANT.

In-orbit conjunctions

A list of the most updated potential collisions computed for object COSMOS 1867 COOLANT.

Target Orbit TCA Probability of collision Miss distance Type
COSMOS 2056 LEO 2024-11-23 16:50:58 0.0002996292 344.0 (m) PAYLOAD
CZ-6A DEB LEO 2024-11-19 08:25:19 0.0001379649 497.0 (m) DEBRIS
FENGYUN 1C DEB SSO 2024-09-27 11:14:22 0.000112639 761.0 (m) DEBRIS

Associated space launch

Nuclear-powered magnetospheric research satellite

COSMOS 1867 COOLANT was lifted into orbit during the mission ‘Tsiklon-2 | Plasma-A 2’, on board a Tsiklon-2 space rocket.

The launch took place on July 10, 1987, 3:35 p.m. from 90.

For more information about the launch, click the button.

Launch to space Tsiklon-2 | Plasma-A 2
Tsiklon-2 | Plasma-A 2

Agency: N/A

Status: Launch Successful

Launch date: July 10, 1987, 3:35 p.m. UTC

Rocket: Tsiklon-2

Launch pad: 90

Location: Baikonur Cosmodrome, Republic of Kazakhstan

...

Latest news about this satellite

There are no fresh news available about this satellite. Check back as we update our databases every day.


Newsletter sign-up

Weekly statistics, charts and insights to help you stay on top of the space industry.